Change the Weather History Date:

Sunday, March 30, 2014

  Actual Average Record
Temperature  
Mean Temperature 56 °F -  
Max Temperature 64 °F 70 °F 87 °F (1934)
Min Temperature 48 °F 38 °F 27 °F (1949)
Degree Days  
Heating Degree Days 9    
Growing Degree Days 6 (Base 50)    
Moisture  
Dew Point 28 °F    
Average Humidity 33    
Maximum Humidity 54    
Minimum Humidity 24    
Precipitation  
Precipitation 0.00 in - - ()
Sea Level Pressure  
Sea Level Pressure 29.85 in    
Wind  
Wind Speed 13 mph (South)    
Max Wind Speed 34 mph    
Max Gust Speed 43 mph    
Visibility 10 miles    
Events      
Averages and records for this station are not official NWS values.
T = Trace of Precipitation, MM = Missing Value Source: NWS Daily Summary

Daily Weather History Graph

Daily Weather History Graph

Search for Another Location

Airport or City:

Trip Planner

Search our weather history database for the weather conditions in past years. The results will help you decide how hot, cold, wet, or windy it might be!

Date:

Astronomy

Mar. 30, 2014 Rise Set
Actual Time 7:22 AM MDT 7:55 PM MDT
Civil Twilight 6:56 AM MDT 8:21 PM MDT
Nautical Twilight 6:26 AM MDT 8:52 PM MDT
Astronomical Twilight 5:54 AM MDT 9:23 PM MDT
Moon 7:11 AM MDT (3/30) 8:11 PM MDT (3/30)
Length of Visible Light 13h 24m
Length of Day
12h 32m
Waning Crescent, 0% of the Moon is Illuminated
Mar 30
Waning Crescent
Mar 30
New
Apr 7
First Quarter
Apr 15
Full
Apr 22
Last Quarter

Hourly Weather History & Observations

Time (MDT) Temp. Dew Point Humidity Pressure Visibility Wind Dir Wind Speed Gust Speed Precip Events Conditions
12:15 AM 64.4 °F 26.6 °F 24% 29.88 in 10.0 mi ESE 5.8 mph - N/A   Clear
12:35 AM 62.6 °F 26.6 °F 26% 29.88 in 10.0 mi ESE 6.9 mph - N/A   Clear
12:55 AM 62.6 °F 26.6 °F 26% 29.87 in 10.0 mi ESE 9.2 mph - N/A   Clear
1:15 AM 60.8 °F 26.6 °F 27% 29.87 in 10.0 mi ESE 15.0 mph - N/A   Clear
1:35 AM 62.6 °F 26.6 °F 26% 29.86 in 10.0 mi SE 13.8 mph - N/A   Clear
1:55 AM 60.8 °F 26.6 °F 27% 29.86 in 10.0 mi SE 12.7 mph - N/A   Partly Cloudy
2:15 AM 60.8 °F 26.6 °F 27% 29.85 in 10.0 mi SSE 12.7 mph - N/A   Clear
2:35 AM 62.6 °F 26.6 °F 26% 29.85 in 10.0 mi SSE 9.2 mph - N/A   Clear
2:55 AM 62.6 °F 26.6 °F 26% 29.84 in 10.0 mi SE 11.5 mph 16.1 mph N/A   Clear
3:15 AM 60.8 °F 26.6 °F 27% 29.83 in 10.0 mi SSE 13.8 mph - N/A   Clear
3:35 AM 59.0 °F 26.6 °F 29% 29.82 in 10.0 mi SE 12.7 mph - N/A   Clear
3:55 AM 60.8 °F 26.6 °F 27% 29.80 in 10.0 mi SE 9.2 mph - N/A   Clear
4:15 AM 59.0 °F 26.6 °F 29% 29.79 in 10.0 mi SE 9.2 mph - N/A   Clear
4:35 AM 60.8 °F 26.6 °F 27% 29.78 in 10.0 mi SSE 9.2 mph - N/A   Clear
4:55 AM 60.8 °F 26.6 °F 27% 29.78 in 10.0 mi SE 9.2 mph - N/A   Clear
5:15 AM 60.8 °F 26.6 °F 27% 29.77 in 10.0 mi SE 11.5 mph - N/A   Clear
5:35 AM 60.8 °F 26.6 °F 27% 29.77 in 10.0 mi SE 11.5 mph - N/A   Clear
5:55 AM 60.8 °F 26.6 °F 27% 29.76 in 10.0 mi SE 11.5 mph - N/A   Clear
6:15 AM 60.8 °F 26.6 °F 27% 29.76 in 10.0 mi SE 12.7 mph - N/A   Clear
6:35 AM 60.8 °F 26.6 °F 27% 29.76 in 10.0 mi SE 11.5 mph - N/A   Partly Cloudy
6:55 AM 59.0 °F 26.6 °F 29% 29.75 in 10.0 mi SE 13.8 mph - N/A   Partly Cloudy
7:15 AM 60.8 °F 26.6 °F 27% 29.75 in 10.0 mi SE 11.5 mph - N/A   Clear
7:35 AM 59.0 °F 26.6 °F 29% 29.74 in 10.0 mi SE 11.5 mph - N/A   Scattered Clouds
7:55 AM 62.6 °F 26.6 °F 26% 29.74 in 10.0 mi South 11.5 mph - N/A   Mostly Cloudy
8:15 AM 60.8 °F 28.4 °F 29% 29.74 in 10.0 mi SSE 11.5 mph - N/A   Partly Cloudy
8:35 AM 60.8 °F 28.4 °F 29% 29.72 in 10.0 mi SSE 11.5 mph - N/A   Clear
8:55 AM 62.6 °F 28.4 °F 27% 29.72 in 10.0 mi SSW 12.7 mph - N/A   Partly Cloudy
9:15 AM 62.6 °F 28.4 °F 27% 29.72 in 10.0 mi SW 19.6 mph 26.5 mph N/A   Scattered Clouds
9:35 AM 62.6 °F 28.4 °F 27% 29.71 in 10.0 mi SSW 20.7 mph - N/A   Mostly Cloudy
9:55 AM 64.4 °F 26.6 °F 24% 29.71 in 10.0 mi SSW 23.0 mph - N/A   Scattered Clouds
10:15 AM 62.6 °F 26.6 °F 26% 29.71 in 10.0 mi West 27.6 mph 32.2 mph N/A   Mostly Cloudy
10:35 AM 62.6 °F 24.8 °F 24% 29.71 in 10.0 mi West 20.7 mph 28.8 mph N/A   Partly Cloudy
10:55 AM 62.6 °F 24.8 °F 24% 29.73 in 10.0 mi WSW 31.1 mph 36.8 mph N/A   Partly Cloudy
11:15 AM 60.8 °F 28.4 °F 29% 29.73 in 10.0 mi SSW 31.1 mph 35.7 mph N/A   Mostly Cloudy
11:35 AM 62.6 °F 26.6 °F 26% 29.74 in 10.0 mi SW 29.9 mph - N/A   Mostly Cloudy
11:55 AM 60.8 °F 26.6 °F 27% 29.75 in 10.0 mi South 25.3 mph 38.0 mph N/A   Mostly Cloudy
12:15 PM 60.8 °F 28.4 °F 29% 29.77 in 10.0 mi SSW 26.5 mph 33.4 mph N/A   Mostly Cloudy
12:35 PM 55.4 °F 28.4 °F 36% 29.80 in 9.0 mi West 34.5 mph 42.6 mph N/A   Scattered Clouds
12:55 PM 50.0 °F 33.8 °F 54% 29.86 in 10.0 mi WNW 27.6 mph 42.6 mph N/A   Scattered Clouds
1:15 PM 50.0 °F 33.8 °F 54% 29.89 in 10.0 mi WSW 10.4 mph - N/A   Mostly Cloudy
1:35 PM 50.0 °F 33.8 °F 54% 29.88 in 10.0 mi SSW 24.2 mph 28.8 mph N/A   Overcast
1:55 PM 51.8 °F 35.6 °F 54% 29.88 in 10.0 mi SW 13.8 mph - N/A   Scattered Clouds
2:15 PM 53.6 °F 33.8 °F 47% 29.87 in 10.0 mi SW 13.8 mph - N/A   Clear
2:35 PM 55.4 °F 32.0 °F 41% 29.86 in 10.0 mi SW 16.1 mph - N/A   Clear
2:55 PM 57.2 °F 30.2 °F 36% 29.87 in 10.0 mi WSW 19.6 mph 29.9 mph N/A   Clear
3:15 PM 53.6 °F 28.4 °F 38% 29.90 in 10.0 mi NW 18.4 mph 32.2 mph N/A   Scattered Clouds
3:35 PM 55.4 °F 30.2 °F 38% 29.90 in 10.0 mi NW 16.1 mph 20.7 mph N/A   Partly Cloudy
3:55 PM 55.4 °F 30.2 °F 38% 29.89 in 10.0 mi North 10.4 mph 17.3 mph N/A   Partly Cloudy
4:15 PM 57.2 °F 32.0 °F 38% 29.89 in 10.0 mi NNE 13.8 mph 20.7 mph N/A   Clear
4:35 PM 57.2 °F 30.2 °F 36% 29.91 in 10.0 mi NNW 15.0 mph - N/A   Partly Cloudy
4:55 PM 55.4 °F 30.2 °F 38% 29.92 in 10.0 mi NNW 21.9 mph - N/A   Partly Cloudy
5:15 PM 55.4 °F 30.2 °F 38% 29.93 in 10.0 mi NNW 18.4 mph 25.3 mph N/A   Clear
5:35 PM 57.2 °F 30.2 °F 36% 29.92 in 10.0 mi NNW 8.1 mph - N/A   Scattered Clouds
5:55 PM 57.2 °F 28.4 °F 33% 29.92 in 10.0 mi NW 15.0 mph 18.4 mph N/A   Partly Cloudy
6:15 PM 59.0 °F 26.6 °F 29% 29.92 in 10.0 mi NW 20.7 mph - N/A   Clear
6:35 PM 59.0 °F 24.8 °F 27% 29.93 in 10.0 mi WNW 12.7 mph - N/A   Clear
6:55 PM 59.0 °F 26.6 °F 29% 29.94 in 10.0 mi NW 13.8 mph 19.6 mph N/A   Clear
7:15 PM 57.2 °F 24.8 °F 29% 29.94 in 10.0 mi NNW 13.8 mph - N/A   Clear
7:35 PM 57.2 °F 24.8 °F 29% 29.95 in 10.0 mi NW 10.4 mph - N/A   Clear
7:55 PM 55.4 °F 28.4 °F 36% 29.96 in 10.0 mi North 10.4 mph 19.6 mph N/A   Clear
8:15 PM 55.4 °F 28.4 °F 36% 29.97 in 10.0 mi North 6.9 mph - N/A   Clear
8:35 PM 53.6 °F 28.4 °F 38% 29.98 in 10.0 mi North 8.1 mph - N/A   Clear
8:55 PM 53.6 °F 26.6 °F 35% 29.99 in 10.0 mi North 6.9 mph - N/A   Clear
9:15 PM 53.6 °F 26.6 °F 35% 29.99 in 10.0 mi North 6.9 mph - N/A   Clear
9:35 PM 53.6 °F 26.6 °F 35% 29.99 in 10.0 mi West 6.9 mph - N/A   Clear
9:55 PM 53.6 °F 28.4 °F 38% 30.00 in 10.0 mi WSW 3.5 mph - N/A   Clear
10:15 PM 50.0 °F 28.4 °F 43% 30.00 in 10.0 mi SE 5.8 mph - N/A   Clear
10:35 PM 50.0 °F 28.4 °F 43% 30.00 in 10.0 mi SSW 3.5 mph - N/A   Clear
10:55 PM 50.0 °F 30.2 °F 47% 30.01 in 10.0 mi South 4.6 mph - N/A   Clear
11:15 PM 48.2 °F 28.4 °F 46% 30.02 in 10.0 mi ESE 3.5 mph - N/A   Clear
11:35 PM 48.2 °F 28.4 °F 46% 30.02 in 10.0 mi Calm Calm - N/A   Clear
11:55 PM 48.2 °F 28.4 °F 46% 30.02 in 10.0 mi Calm Calm - N/A   Clear